Location: Elstree
(51.6403°N, 0.2969°W)
Time: 16:18:49
(UTC+00:00)

SJ 16-02 - Pass Details

Date: 20 June 2021
Orbit: 606 x 616 km, 75.0° (Epoch: 29 July)

Event Time Altitude Azimuth Distance (km) Brightness Sun altitude
Rises 00:31:42 0° 330° (NNW) 2,877 5.7 -14.7°
Reaches altitude 10° 00:34:06 10° 321° (NW) 1,968 4.6 -14.6°
Maximum altitude 00:38:02 33° 257° (WSW) 1,021 2.3 -14.5°
Enters shadow 00:40:01 22° 211° (SSW) 1,326 2.5 -14.5°
